SB KEPS @ AMSAT $ORB13034.O Orbital Elements 13034.OSCAR
HR AMSAT ORBITAL ELEMENTS FOR OSCAR SATELLITES FROM WA5QGD FORT WORTH,TX February 3, 2013 BID: ORB13034.O TO ALL RADIO AMATEURS BT
Satellite: AO-07 Catalog number: 07530 Epoch time: 13034.02947209 Element set: 597 Inclination: 101.4215 deg RA of node: 028.4608 deg Eccentricity: 0.0011865 Arg of perigee: 188.7323 deg Mean anomaly: 203.7105 deg Mean motion: 12.53594353 rev/day Decay rate: -9.0e-08 rev/day^2 Epoch rev: 74897 Checksum: 297
Satellite: FO-29 Catalog number: 24278 Epoch time: 13034.87005509 Element set: 39 Inclination: 098.5759 deg RA of node: 111.1670 deg Eccentricity: 0.0350856 Arg of perigee: 149.4300 deg Mean anomaly: 212.7811 deg Mean motion: 13.52995783 rev/day Decay rate: -1.0e-08 rev/day^2 Epoch rev: 81328 Checksum: 309
Satellite: SO-33 Catalog number: 25509 Epoch time: 13034.55486885 Element set: 425 Inclination: 031.4314 deg RA of node: 104.1550 deg Eccentricity: 0.0351543 Arg of perigee: 068.1521 deg Mean anomaly: 064.1884 deg Mean motion: 14.28958143 rev/day Decay rate: 2.14e-06 rev/day^2 Epoch rev: 74576 Checksum: 296
Satellite: RS-22 Catalog number: 27939 Epoch time: 13034.53043977 Element set: 134 Inclination: 097.7973 deg RA of node: 229.3512 deg Eccentricity: 0.0012295 Arg of perigee: 250.6010 deg Mean anomaly: 109.3864 deg Mean motion: 14.64309847 rev/day Decay rate: 2.92e-06 rev/day^2 Epoch rev: 49973 Checksum: 322
Satellite: VO-52 Catalog number: 28650 Epoch time: 13034.64727846 Element set: 334 Inclination: 097.5770 deg RA of node: 060.0712 deg Eccentricity: 0.0026263 Arg of perigee: 003.0294 deg Mean anomaly: 357.1069 deg Mean motion: 14.83548504 rev/day Decay rate: 9.26e-06 rev/day^2 Epoch rev: 41928 Checksum: 305
Satellite: HO-68 Catalog number: 36122 Epoch time: 13034.73353881 Element set: 251 Inclination: 100.3264 deg RA of node: 095.0607 deg Eccentricity: 0.0007234 Arg of perigee: 301.6247 deg Mean anomaly: 058.4166 deg Mean motion: 13.16301866 rev/day Decay rate: -4.4e-07 rev/day^2 Epoch rev: 15085 Checksum: 271
/EX SB KEPS @ AMSAT $ORB13034.D Orbital Elements 13034.MICROS
HR AMSAT ORBITAL ELEMENTS FOR THE MICROSATS FROM WA5QGD FORT WORTH,TX February 3, 2013 BID: ORB13034.D TO ALL RADIO AMATEURS BT
Satellite: UO-11 Catalog number: 14781 Epoch time: 13034.24892166 Element set: 93 Inclination: 097.9214 deg RA of node: 097.3721 deg Eccentricity: 0.0008700 Arg of perigee: 013.4434 deg Mean anomaly: 346.7008 deg Mean motion: 14.80744185 rev/day Decay rate: 4.13e-06 rev/day^2 Epoch rev: 55411 Checksum: 283
Satellite: AO-16 Catalog number: 20439 Epoch time: 13033.86743422 Element set: 666 Inclination: 098.4589 deg RA of node: 337.1063 deg Eccentricity: 0.0010892 Arg of perigee: 190.2049 deg Mean anomaly: 203.1255 deg Mean motion: 14.32136008 rev/day Decay rate: 4.3e-07 rev/day^2 Epoch rev: 20301 Checksum: 270
Satellite: LO-19 Catalog number: 20442 Epoch time: 13034.49980693 Element set: 599 Inclination: 098.4273 deg RA of node: 339.9421 deg Eccentricity: 0.0012044 Arg of perigee: 179.6072 deg Mean anomaly: 292.5937 deg Mean motion: 14.32349610 rev/day Decay rate: 3.1e-07 rev/day^2 Epoch rev: 20329 Checksum: 312
Satellite: AO-27 Catalog number: 22825 Epoch time: 13034.87182069 Element set: 305 Inclination: 098.6050 deg RA of node: 340.4079 deg Eccentricity: 0.0007549 Arg of perigee: 325.7542 deg Mean anomaly: 104.5615 deg Mean motion: 14.29531213 rev/day Decay rate: 3.8e-07 rev/day^2 Epoch rev: 958 Checksum: 293
Satellite: IO-26 Catalog number: 22826 Epoch time: 13034.42299169 Element set: 61 Inclination: 098.5988 deg RA of node: 340.2803 deg Eccentricity: 0.0007984 Arg of perigee: 319.7642 deg Mean anomaly: 187.7969 deg Mean motion: 14.29811752 rev/day Decay rate: 6.0e-07 rev/day^2 Epoch rev: 964 Checksum: 338
Satellite: GO-32 Catalog number: 25397 Epoch time: 13034.47181520 Element set: 990 Inclination: 098.3968 deg RA of node: 008.1702 deg Eccentricity: 0.0001048 Arg of perigee: 021.2430 deg Mean anomaly: 338.8795 deg Mean motion: 14.23319532 rev/day Decay rate: -6.9e-07 rev/day^2 Epoch rev: 75692 Checksum: 306
Satellite: NO-44 Catalog number: 26931 Epoch time: 13034.08132351 Element set: 250 Inclination: 067.0501 deg RA of node: 245.2117 deg Eccentricity: 0.0004767 Arg of perigee: 271.4787 deg Mean anomaly: 088.5771 deg Mean motion: 14.29886235 rev/day Decay rate: 3.19e-06 rev/day^2 Epoch rev: 59225 Checksum: 301
Satellite: SO-50 Catalog number: 27607 Epoch time: 13033.86787503 Element set: 983 Inclination: 064.5594 deg RA of node: 313.0014 deg Eccentricity: 0.0063024 Arg of perigee: 200.0034 deg Mean anomaly: 159.8582 deg Mean motion: 14.72751538 rev/day Decay rate: 1.30e-06 rev/day^2 Epoch rev: 54393 Checksum: 289
Satellite: CO-55 Catalog number: 27844 Epoch time: 13033.66240855 Element set: 570 Inclination: 098.7033 deg RA of node: 044.6881 deg Eccentricity: 0.0008658 Arg of perigee: 276.7356 deg Mean anomaly: 149.1740 deg Mean motion: 14.21154220 rev/day Decay rate: 1.94e-06 rev/day^2 Epoch rev: 49762 Checksum: 317
Satellite: CO-57 Catalog number: 27848 Epoch time: 13033.57750874 Element set: 518 Inclination: 098.7116 deg RA of node: 044.0470 deg Eccentricity: 0.0008566 Arg of perigee: 283.4888 deg Mean anomaly: 196.9560 deg Mean motion: 14.20888280 rev/day Decay rate: 1.76e-06 rev/day^2 Epoch rev: 49754 Checksum: 355
Satellite: AO-51 Catalog number: 28375 Epoch time: 13034.37316314 Element set: 477 Inclination: 098.1808 deg RA of node: 355.3308 deg Eccentricity: 0.0084537 Arg of perigee: 060.8878 deg Mean anomaly: 300.0733 deg Mean motion: 14.41063184 rev/day Decay rate: 1.54e-06 rev/day^2 Epoch rev: 45206 Checksum: 298
Satellite: CP3 Catalog number: 31129 Epoch time: 13033.94253958 Element set: 381 Inclination: 097.8897 deg RA of node: 034.2344 deg Eccentricity: 0.0101375 Arg of perigee: 124.8888 deg Mean anomaly: 236.1911 deg Mean motion: 14.53444917 rev/day Decay rate: 2.98e-06 rev/day^2 Epoch rev: 30749 Checksum: 326
Satellite: CO-65 Catalog number: 32785 Epoch time: 13034.72654969 Element set: 543 Inclination: 097.7700 deg RA of node: 095.9780 deg Eccentricity: 0.0014690 Arg of perigee: 030.6674 deg Mean anomaly: 116.0411 deg Mean motion: 14.83566356 rev/day Decay rate: 8.69e-06 rev/day^2 Epoch rev: 25808 Checksum: 338
Satellite: PRISM Catalog number: 33493 Epoch time: 13034.78732081 Element set: 502 Inclination: 098.1987 deg RA of node: 187.5399 deg Eccentricity: 0.0017427 Arg of perigee: 266.4327 deg Mean anomaly: 093.4895 deg Mean motion: 14.85212060 rev/day Decay rate: 1.653e-05 rev/day^2 Epoch rev: 21811 Checksum: 314
Satellite: SOHLA-1 Catalog number: 33496 Epoch time: 13034.53509076 Element set: 959 Inclination: 098.1208 deg RA of node: 151.0355 deg Eccentricity: 0.0006930 Arg of perigee: 037.9135 deg Mean anomaly: 019.4780 deg Mean motion: 14.70180243 rev/day Decay rate: 2.51e-06 rev/day^2 Epoch rev: 21623 Checksum: 280
Satellite: SO-67 Catalog number: 35870 Epoch time: 13034.90598558 Element set: 759 Inclination: 097.2080 deg RA of node: 068.4403 deg Eccentricity: 0.0003690 Arg of perigee: 075.6460 deg Mean anomaly: 047.5624 deg Mean motion: 15.25835935 rev/day Decay rate: 2.517e-05 rev/day^2 Epoch rev: 18792 Checksum: 339
Satellite: TISAT-1 Catalog number: 36799 Epoch time: 13034.79915516 Element set: 774 Inclination: 098.0440 deg RA of node: 118.7163 deg Eccentricity: 0.0015356 Arg of perigee: 137.8444 deg Mean anomaly: 222.3945 deg Mean motion: 14.82823373 rev/day Decay rate: 1.068e-05 rev/day^2 Epoch rev: 13880 Checksum: 322
Satellite: STUDSAT Catalog number: 36801 Epoch time: 13033.23579927 Element set: 581 Inclination: 098.0591 deg RA of node: 119.1828 deg Eccentricity: 0.0012815 Arg of perigee: 127.0616 deg Mean anomaly: 233.1748 deg Mean motion: 14.86811788 rev/day Decay rate: 3.310e-05 rev/day^2 Epoch rev: 13867 Checksum: 308
Satellite: FO-69 Catalog number: 37227 Epoch time: 13033.48538872 Element set: 0054 Inclination: 071.9706 deg RA of node: 163.6588 deg Eccentricity: 0.0018592 Arg of perigee: 252.2953 deg Mean anomaly: 107.6177 deg Mean motion: 14.77359781 rev/day Decay rate: 3.63e-06 rev/day^2 Epoch rev: 00901 Checksum: 333
Satellite: FO-70 Catalog number: 37380 Epoch time: 13033.39486803 Element set: 0055 Inclination: 071.9736 deg RA of node: 164.7119 deg Eccentricity: 0.0019089 Arg of perigee: 249.6738 deg Mean anomaly: 110.2396 deg Mean motion: 14.77102072 rev/day Decay rate: 3.96e-06 rev/day^2 Epoch rev: 00907 Checksum: 314
Satellite: ALMASAT-1 Catalog number: 38078 Epoch time: 13034.84006814 Element set: 971 Inclination: 069.4830 deg RA of node: 148.8919 deg Eccentricity: 0.0722749 Arg of perigee: 316.6870 deg Mean anomaly: 037.9562 deg Mean motion: 14.18625318 rev/day Decay rate: 1.3946e-04 rev/day^2 Epoch rev: 5029 Checksum: 336
Satellite: XATCOBEO Catalog number: 38082 Epoch time: 13034.71716429 Element set: 895 Inclination: 069.4864 deg RA of node: 136.4223 deg Eccentricity: 0.0644706 Arg of perigee: 309.7420 deg Mean anomaly: 044.8579 deg Mean motion: 14.39071439 rev/day Decay rate: 3.9382e-04 rev/day^2 Epoch rev: 5062 Checksum: 324
/EX SB KEPS @ AMSAT $ORB13034.W Orbital Elements 13034.WEATHER
HR AMSAT ORBITAL ELEMENTS FOR WEATHER SATELLITES FROM WA5QGD FORT WORTH,TX February 3, 2013 BID: ORB13034.W TO ALL RADIO AMATEURS BT
Satellite: NOAA-10 Catalog number: 16969 Epoch time: 13034.55168361 Element set: 233 Inclination: 098.5597 deg RA of node: 065.2149 deg Eccentricity: 0.0011135 Arg of perigee: 276.0719 deg Mean anomaly: 237.4120 deg Mean motion: 14.27612442 rev/day Decay rate: 8.7e-07 rev/day^2 Epoch rev: 37287 Checksum: 304
Satellite: NOAA-11 Catalog number: 19531 Epoch time: 13034.30745860 Element set: 231 Inclination: 098.7183 deg RA of node: 120.4625 deg Eccentricity: 0.0010100 Arg of perigee: 283.8340 deg Mean anomaly: 106.8393 deg Mean motion: 14.15001292 rev/day Decay rate: -7.0e-08 rev/day^2 Epoch rev: 25719 Checksum: 256
